• MPC Preparation (Info)

  • MPEC 2023-O46 : 2023 OX

    The following Minor Planet Electronic Circular may be linked-to from your own Web pages, but must not otherwise be redistributed electronically.

    A form allowing access to any MPEC is at the bottom of this page.


    Read MPEC 2023-O45 Read MPEC 2023-O47


    M.P.E.C. 2023-O46                                 Issued 2023 July 21, 11:42 UT
    
         The Minor Planet Electronic Circulars contain information on unusual
             minor planets, routine data on comets and natural satellites,
             and occasional editorial announcements.  They are published
        on behalf of Division F of the International Astronomical Union by the
              Minor Planet Center, Smithsonian Astrophysical Observatory,
                              Cambridge, MA 02138, U.S.A.
    			  
                 Prepared using the Tamkin Foundation Computer Network
    
                                  MPC@CFA.HARVARD.EDU
                URL https://www.minorplanetcenter.net/    ISSN 1523-6714
    
                                     2023 OX                                 
    
    
    Observations:
         K23O00X*KC2023 07 19.28793 23 31 20.67 -15 24 21.7          20.0 GVEO046W94
         K23O00X KC2023 07 19.29417 23 31 26.65 -15 22 58.9                VEO046W94
         K23O00X KC2023 07 19.30046 23 31 32.58 -15 21 36.2          20.5 GVEO046W94
         K23O00X  C2023 07 19.42113523 33 39.219-14 59 37.07         19.2 GVEO046H01
         K23O00X  C2023 07 19.42553423 33 43.347-14 58 39.76         18.3 GVEO046H01
         K23O00X  C2023 07 19.43745523 33 54.495-14 56 04.27         19.4 GVEO046H01
         K23O00X  C2023 07 19.44253923 33 59.240-14 54 57.90         19.5 GVEO046H01
         K23O00X KC2023 07 20.04364123 43 50.966-12 51 32.47         19.6 GVEO046J95
         K23O00X KC2023 07 20.04966723 43 56.105-12 50 22.63         19.3 GVEO046J95
         K23O00X  C2023 07 20.42968523 49 22.811-11 38 08.01         19.4 GVEO046654
         K23O00X  C2023 07 20.43365023 49 25.733-11 37 25.23         19.4 GVEO046654
         K23O00X KC2023 07 21.03293 23 57 13.60 -09 50 16.6          19.4 GVEO046M21
         K23O00X HC2023 07 21.05210 23 57 25.77 -09 47 12.9                VEO046M21
         K23O00X KC2023 07 21.15256 23 58 27.49 -09 31 11.7          20.1 VZEO046M49
         K23O00X KC2023 07 21.16251 23 58 33.48 -09 29 37.1          19.8 VZEO046M49
         K23O00X KC2023 07 21.17247 23 58 39.57 -09 28 01.6          19.9 VZEO046M49
         K23O00X KC2023 07 21.34849100 00 51.56 -09 04 55.5          20.1 VuEO046H21
         K23O00X KC2023 07 21.35128900 00 53.23 -09 04 30.4          20.2 VuEO046H21
         K23O00X KC2023 07 21.35408600 00 54.91 -09 04 04.8          20.1 VuEO046H21
    
    Observer details:
    654 Table Mountain Observatory, Wrightwood-PHMC.  Observers N. Evans, P. Choi,
        N. Saini, C. Zhai, R. Trahan, M. Shao.  1.0-m Reflector + CCD.
    H01 Magdalena Ridge Observatory, Socorro.  Observers W. H. Ryan, E. V. Ryan.
        Measurer W. H. Ryan.  2.4-m f/8.9 Ritchey-Chretien + CCD.
    H21 Astronomical Research Observatory, Westfield.  Observer R. Holmes.
        Measurers T. Linder, R. Holmes, L. Horn.  0.76-m f/3.0 astrograph + CCD.
    J95 Great Shefford.  Observer P. Birtwhistle.  0.41-m f/6.3 Schmidt-Cassegrain
        + CCD.
    M21 Schiaparelli Southern Observatory, Hakos.  Observers A. Aletti, F.
        Bellini, L. Buzzi, G. Galli.  Measurer L. Buzzi.  0.36-m f/8.4 reflector +
        CCD.
    M49 IAS Remote Observatory, Hakos.  Observer D. Husar.  0.25-m f/4.6 reflector
        + CCD.
    W94 MAP, San Pedro de Atacama.  Observers A. Maury, G. Attard.  Measurers A.
        Maury, G. Attard, D. Parrott, F. Signoret.  0.28-m f/2.2 Schmidt
        astrograph + CCD.
    
    Orbital elements:
    2023 OX                                                  Earth MOID = 0.0180 AU
    Epoch 2023 Sept. 13.0 TT = JDT 2460200.5                Veres                   
    M  17.65968              (2000.0)            P               Q                  
    n   0.31269641     Peri.  334.73181     +0.44398249     +0.89600108             
    a   2.1497475      Node   321.62510     -0.81993453     +0.40272594             
    e   0.5192043      Incl.    0.72452     -0.36136812     +0.18706654             
    P   3.15           H   25.34          G   0.15           U   8                  
    Residuals in seconds of arc
    230719 W94  1.1+  0.6+    230720 J95  0.3-  0.0     230721 M49  0.5-  0.0
    230719 W94  0.6+  0.6+    230720 J95  0.2+  0.4+    230721 M49  0.2+  0.4+
    230719 W94  0.9-  0.1-    230720 654  0.0   0.1-    230721 H21  0.1+  0.1+
    230719 H01  0.1+  0.0     230720 654  0.1+  0.0     230721 H21  0.0   0.3-
    230719 H01  0.1+  0.1-    230721 M21  0.5-  0.3+    230721 H21  0.0   0.2-
    230719 H01  0.0   0.1-    230721 M21  0.0   0.4+
    230719 H01  0.0   0.0     230721 M49  0.1+  0.5+
    
    Ephemeris:
    2023 OX                  a,e,i = 2.15, 0.52, 1                   q = 1.0336
    Date    TT    R. A. (2000) Decl.     Delta      r    Elong.  Phase     V
    2023 06 21    14 38 21.5 -22 34 39   0.09544 1.0855   134.7    41.7    22.0
    ...
    2023 07 06    15 39 48.4 -32 27 19   0.03873 1.0446   135.4    43.1    20.0
    ...
    2023 07 14    20 16 43.9 -40 05 49   0.01968 1.0350   159.3    20.3    17.9
    ...
    2023 07 20    23 43 01.8 -12 56 02   0.02981 1.0337   125.2    53.5    19.7
    2023 07 21    23 56 40.1 -09 56 54   0.03289 1.0340   122.0    56.4    20.0
    2023 07 22    00 07 38.8 -07 28 00   0.03614 1.0344   119.6    58.7    20.3
    ...
    2023 07 28    00 43 53.1 +01 07 35   0.05732 1.0400   113.8    63.3    21.5
    ...
    2023 08 05    01 01 21.4 +05 37 41   0.08686 1.0552   115.7    60.0    22.3
    ...
    2023 08 20    01 06 11.1 +08 09 05   0.1420  1.1052   128.1    46.1    23.1
    
    M. P. C. Staff               (C) Copyright 2023 MPC           M.P.E.C. 2023-O46
    


    Read MPEC 2023-O45 Read MPEC 2023-O47


    MPEC number:

    Enter an MPEC number in one of the following forms:

    • 1997-B01 (the full form)
    • J97B01 (the packed version of the full form)
    • B01 (the abbreviated form)